Regional Weather Roundup
Issued by NWS Upton, NY

Current Version | Previous Version | Graphics & Text | Print | Product List | Glossary Off
Versions: 1 2 3 4 5 6 7 8 9 10 11 12 13 14 15 16 17 18 19 20 21 22 23 24 25 26 27 28 29 30 31 32 33 34 35 36 37 38 39 40 41 42 43 44 45 46 47 48 49 50

000
ASUS41 KOKX 301805
RWROKX

REGIONAL WEATHER ROUNDUP
NATIONAL WEATHER SERVICE NEW YORK NY
100 PM EST FRI JAN 30 2015

NOTE: "FAIR" INDICATES FEW OR NO CLOUDS BELOW 12,000 FEET WITH NO
SIGNIFICANT WEATHER AND/OR OBSTRUCTIONS TO VISIBILITY.

NYZ071-072-176-178-NJZ106-104-301900-
NEW YORK CITY METRO AREA


CITY           SKY/WX    TMP DP  RH WIND       PRES   REMARKS
CENTRAL PARK   CLOUDY    38  21  50 NW12G18   29.85F WCI  30
LAGUARDIA APRT PTSUNNY   36  23  59 NW21G30   29.82F WCI  25
KENNEDY INTL   PTSUNNY   38  25  59 NW18G24   29.83F WCI  28
NEWARK/LIBERTY CLOUDY    36  25  64 NW16G25   29.84F WCI  26
BRNX BOT. GARD   N/A    N/A N/A N/A NW6       29.82F
TETERBORO      CLOUDY    37  20  50 NW18G25   29.83F WCI  27
$$

NYZ177-179-078>081-301900-
LONG ISLAND NEW YORK

CITY           SKY/WX    TMP DP  RH WIND       PRES   REMARKS
FARMINGDALE    CLOUDY    36  26  67 NW14G24   29.81F WCI  27
ISLIP          CLOUDY    34  26  72 NW13      29.79F WCI  25
SHIRLEY        CLOUDY    33  27  78 NW13      29.80F WCI  24
WESTHAMPTON    CLOUDY    33  28  81 NW12      29.80S WCI  24
MONTAUK POINT    N/A     34  30  85 NW9       29.76F WCI  27
$$

NYZ052-065-067-301900-
HUDSON VALLEY

CITY           SKY/WX    TMP DP  RH WIND       PRES   REMARKS
WHITE PLAINS   PTSUNNY   34  24  67 NW16G24   29.79F WCI  24
NEWBURGH       PTSUNNY   34  23  64 NW17G29   29.83F WCI  23
MONTGOMERY     CLOUDY    34  20  56 NW20G29   29.81F WCI  23
POUGHKEEPSIE   CLOUDY    36  22  56 NW10      29.81F WCI  28
ALBANY         FLURRIES  29  19  66 W17G26    29.84F WCI  17
$$

NJZ001-105-106-008-010-013-015-019>022-104-301900-
NEW JERSEY

CITY           SKY/WX    TMP DP  RH WIND       PRES   REMARKS
NEWARK/LIBERTY CLOUDY    36  25  64 NW16G25   29.84F WCI  26
TETERBORO      CLOUDY    37  20  50 NW18G25   29.83F WCI  27
CALDWELL       CLOUDY    35  21  56 NW16G26   29.85F WCI  25
MORRISTOWN     CLOUDY    37  21  52 NW13G31   29.86F WCI  29
SOMERVILLE     CLOUDY    37  24  59 NW10      29.85F WCI  30
SUSSEX         PTSUNNY   34  18  52 NW8G21    29.85F WCI  27
ANDOVER          N/A     33  18  53 N13G22    29.85F WCI  24
TRENTON        PTSUNNY   37  20  50 N17G23    29.86F WCI  27
MILLVILLE      CLOUDY    41  22  46 NW15G28   29.90F
ATLANTIC CITY  PTSUNNY   40  23  50 NW24      29.87F WCI  29
WRIGHTSTOWN    CLOUDY    37  23  55 NW18G28   29.85F WCI  27
TOMS RIVER     CLOUDY    37  25  60 NW17G26   29.86F WCI  28
BELMAR         CLOUDY    36  21  55 NW14G25   29.85F WCI  27
$$

PAZ047>061-062-071-301900-
EASTERN PENNSYLVANIA

CITY           SKY/WX    TMP DP  RH WIND       PRES   REMARKS
PHILADELPHIA   PTSUNNY   40  19  43 NW21G29   29.91F WCI  30
ALLENTOWN      MOSUNNY   35  20  54 NW16G30   29.90F WCI  25
SCRANTON       FLURRIES  31  20  63 NW16G25   29.89F WCI  20
$$

CTZ002-004>006-009-010-012-RIZ004-006-007-MAZ004-011-015-301900-
SOUTHERN NEW ENGLAND
 IN CT

CITY           SKY/WX    TMP DP  RH WIND       PRES   REMARKS
BRADLEY INTL   CLOUDY    35  23  61 NW13      29.75F WCI  26
HARTFORD       CLOUDY    35  23  61 NW10G18   29.77S WCI  27
DANBURY        CLOUDY    32  23  69 VRB6      29.80S WCI  26
WTRBRY/OXFORD  CLOUDY    30  19  64 NW14G24   29.76F WCI  20
BRIDGEPORT     CLOUDY    34  27  75 W10       29.80F WCI  26
MERIDEN        CLOUDY    34  23  64 NW15G23   29.77S WCI  24
NEW HAVEN      CLOUDY    34  24  67 NW10      29.78F WCI  26
CHESTER        CLOUDY    34  28  80 NW7       29.75S WCI  28
GROTON         CLOUDY    33  28  81 NW9       29.74F WCI  25
WILLIMANTIC    CLOUDY    33  25  72 VRB7      29.75F WCI  27

 IN RI

CITY           SKY/WX    TMP DP  RH WIND       PRES   REMARKS
PROVIDENCE     LGT SNOW  34  29  82 N6        29.73F WCI  29
BLOCK ISLAND   CLOUDY    34  28  80 NW8       29.72F WCI  27
WESTERLY       CLOUDY    34  29  82 NW8       29.74F WCI  27

 IN MA

CITY           SKY/WX    TMP DP  RH WIND       PRES   REMARKS
BOSTON         LGT SNOW  33  29  85 NW8       29.74F FOG     WCI  26
WORCESTER      CLOUDY    30  25  81 NW14      29.68F WCI  19
WESTFIELD      CLOUDY    34  23  64 NW12G21   29.74F WCI  25
PROVINCETOWN   CLOUDY    34  32  93 NW7       29.72F WCI  28
NANTUCKET      CLOUDY    39  37  92 NW3       29.70F
$$

ANZ330-335-338-340-345-350-353-355-301900-
COASTAL MARINE OBSERVATIONS


STATION/POSITION TIME  SKY/WX   TEMP    WIND        PRES    VSBY  WAVE
                                AIR SEA DIR/SP/G                  HT/PER
                 (UTC)          (F)     (DEG/KT/KT) (MB)    (MI)  (FT/S)
NY HARB ENTRANCE 1800            37 41  300/ 21/ 25 1009.5          3/ 4
4S FIRE IS       1800               37                N/A           3/ 6
20S FIRE ISLAND  1700               42              1010.0          5/ 4
23SW MTP         1800                                 N/A           4/ 6
HUDSON CANYON    NOT AVBL
EXECUTION ROCKS  1700            36 33  300/ 16/ 23   N/A
WESTERN LI SOUND 1700            34     310/ 12/ 16   N/A           1
CENTRAL LI SOUND 1800            33 35  290/ 10/ 14   N/A           2/ 3
EASTERN LI SOUND NOT AVBL
ROBBINS REEF     1800            36     330/ 15/ 20 1009.3
$$


>>>>>>>>>>>>>>>>>>>>>>>>>>>> KEY <<<<<<<<<<<<<<<<<<<<<<<<<<<
>                                                          <
>     SKY/WX - SKY CONDITION/PRESENT WEATHER               <
>     TMP    - TEMPERATURE IN FAHRENHEIT                   <
>     DP     - DEWPOINT IN FAHRENHEIT                      <
>     RH     - RELATIVE HUMIDITY IN PERCENT                <
>     WIND   - DIRECTION AND SPEED IN MPH                  <
>     PRES   - MEAN SEA LEVEL PRESSURE IN INCHES OF HG     <
>     WCI    - WIND CHILL INDEX                            <
>     VSB    - VISIBILITY IN MILES                         <
>     HX     - HEAT INDEX                                  <
>     TC     - TEMPERATURE IN CELSIUS                      <
>     VRB    - VARIABLE WIND DIRECTION                     <
>                                                          <
>>>>>>>>>>>>>>>>>>>>>>>>>>>> KEY <<<<<<<<<<<<<<<<<<<<<<<<<<<





USA.gov is the U.S. government's official web portal to all federal, state and local government web resources and services.